EDT,Max TemperatureF,Mean TemperatureF,Min TemperatureF,Max Dew PointF,MeanDew PointF,Min DewpointF,Max Humidity, Mean Humidity, Min Humidity, Max Sea Level PressureIn, Mean Sea Level PressureIn, Min Sea Level PressureIn, Max VisibilityMiles, Mean VisibilityMiles, Min VisibilityMiles, Max Wind SpeedMPH, Mean Wind SpeedMPH, Max Gust SpeedMPH,PrecipitationIn, CloudCover, Events, WindDirDegrees
2013-3-1,32,29,26,30,25,18,93,79,64,30.12,30.04,29.96,10,10,4,13,7,18,0.00,8,,29
2013-3-2,32,29,26,21,19,18,74,68,60,30.11,30.09,30.06,10,10,10,15,8,22,0.00,7,Snow,352
2013-3-3,32,26,19,19,17,14,86,67,55,30.10,30.07,30.04,10,10,7,15,7,18,0.00,5,Snow,329
2013-3-4,33,24,15,28,19,14,93,72,52,30.14,30.09,30.02,10,10,2,8,2,,0.00,3,Snow,118
2013-3-5,32,30,28,28,27,23,100,87,69,30.06,29.86,29.73,10,5,0,17,11,28,0.17,8,Snow,77
2013-3-6,33,30,26,30,26,23,93,83,75,30.25,30.09,29.82,10,9,1,17,10,23,0.03,8,Snow,334
2013-3-7,35,30,26,30,27,21,93,81,56,30.40,30.33,30.24,10,9,4,10,6,,0.00,7,,313
2013-3-8,37,26,14,27,20,12,100,74,52,30.50,30.44,30.39,10,8,0,7,1,,0.00,0,Fog,112
2013-3-9,42,34,26,32,27,19,81,74,61,30.39,30.19,29.96,10,10,10,14,5,18,0.00,3,Rain,137
2013-3-10,57,49,41,41,37,32,70,61,51,29.95,29.85,29.73,10,10,10,12,6,18,0.01,4,Rain,154
2013-3-11,53,43,33,48,40,30,100,90,54,29.77,29.66,29.56,10,7,2,24,8,30,0.17,8,Rain,215
2013-3-12,33,32,30,30,28,23,93,84,65,29.96,29.89,29.78,10,9,1,20,14,28,0.00,8,Snow,256
2013-3-13,30,26,21,27,20,12,86,73,59,30.30,30.13,29.96,10,9,1,23,15,29,0.00,6,Snow,290
2013-3-14,39,30,21,30,19,14,93,65,41,30.31,30.24,30.13,10,10,10,10,6,16,0.00,1,,252
2013-3-15,44,37,30,41,33,28,100,86,61,30.13,29.94,29.79,10,6,2,9,6,,0.23,3,Rain,238
2013-3-16,39,34,30,37,32,23,100,94,75,30.09,29.84,29.64,10,5,1,14,6,18,0.00,8,Rain-Snow,23
2013-3-17,35,32,28,23,22,21,75,71,56,30.20,30.13,30.06,10,10,10,18,8,26,0.00,7,,72
2013-3-18,33,30,28,34,29,21,100,90,74,30.05,29.76,29.58,10,6,1,28,14,36,0.01,7,Rain-Snow,125
2013-3-19,33,27,21,21,15,12,74,60,44,30.04,29.90,29.76,10,10,5,30,21,39,0.00,5,Snow,264
2013-3-20,28,24,19,18,12,7,93,59,43,30.04,30.00,29.97,10,9,1,20,13,25,0.00,7,Snow,295
2013-3-21,32,22,12,21,15,10,93,72,48,30.01,29.98,29.95,10,9,1,20,9,24,0.00,4,Snow,294
2013-3-22,41,30,19,21,17,14,93,64,36,30.06,30.02,29.98,10,10,10,13,4,22,0.00,0,,282
2013-3-23,39,31,23,23,22,18,93,70,52,30.11,30.06,29.98,10,10,7,10,3,18,0.00,1,,16
2013-3-24,35,32,28,27,24,21,86,75,60,29.99,29.78,29.58,10,9,1,28,12,37,0.00,6,Snow,68
2013-3-25,35,32,28,30,27,25,93,85,65,29.97,29.72,29.56,10,7,1,15,11,24,0.01,8,Snow,347
2013-3-26,37,34,32,30,29,27,93,83,70,30.21,30.10,29.98,10,10,7,21,9,25,0.00,8,Snow,310
2013-3-27,41,36,30,32,26,19,93,74,45,30.30,30.26,30.21,10,10,7,15,8,22,0.00,6,Snow,293
2013-3-28,48,36,23,27,22,19,86,59,37,30.33,30.30,30.27,10,10,10,14,4,17,0.00,0,,287
2013-3-29,51,38,26,28,24,19,93,61,32,30.32,30.28,30.22,10,10,5,16,2,20,0.00,2,,325
2013-3-30,53,38,24,32,27,21,93,60,40,30.25,30.12,29.93,10,10,7,9,2,17,0.00,0,,202
2013-3-31,60,48,35,45,35,30,100,65,34,29.93,29.78,29.69,10,9,1,25,6,33,0.00,5,Rain,271